Location: Peebles
(55.6412°N, 3.1714°W)
Time: 15:52:51
(UTC+01:00)

BREEZE-M R/B - Pass Details

Date: 26 September 2021
Orbit: 581 x 26585 km, 48.9° (Epoch: 15 October)

Event Time Altitude Azimuth Distance (km) Brightness Sun altitude
Rises 20:29:25 0° 253° (WSW) 3,503 7.4 -13.2°
Reaches altitude 10° 20:32:14 10° 244° (WSW) 2,088 5.9 -13.6°
Maximum altitude 20:35:38 34° 176° (S) 976 3.4 -14.0°
Enters shadow 20:37:21 22° 127° (SE) 1,375 3.8 -14.3°
